When you browse on this site, cookies collect data to enhance your experience and personalize the content and advertising you see.
Visit our Privacy Policy to learn more. By continuing to use the site, you agree to this use of cookies and data.
  • In Hungary
  • List of Countries
  • For 7 days
  • Water Temperature
  • Satellite Maps
  • Weather Map
  • News
  • Weather Widgets
  • user-avatar
    Login

    Hourly Weather San Francisco Atezcatzinco

    Today, 22 February, Friday

    Time Temperature Precipitation Wind Pressure Humidity
    00:00 +12°C° 0 mm 1 mps 564 mmHg 49%
    01:00 +12°C° 0 mm 1 mps 563 mmHg 51%
    02:00 +11°C° 0 mm 1 mps 563 mmHg 52%
    03:00 +11°C° 0 mm 1 mps 563 mmHg 51%
    04:00 +11°C° 0 mm 1 mps 563 mmHg 50%
    05:00 +10°C° 0 mm 1 mps 563 mmHg 44%
    06:00 +12°C° 0 mm 1 mps 564 mmHg 40%
    07:00 +14°C° 0 mm 1 mps 566 mmHg 35%
    08:00 +16°C° 0 mm 1 mps 567 mmHg 31%
    09:00 +19°C° 0 mm 1 mps 568 mmHg 28%
    10:00 +21°C° 0 mm 1 mps 569 mmHg 24%
    11:00 +23°C° 0 mm 2 mps 570 mmHg 21%
    12:00 +24°C° 0 mm 2 mps 570 mmHg 20%
    13:00 +25°C° 0 mm 2 mps 569 mmHg 19%
    14:00 +25°C° 0 mm 2 mps 569 mmHg 19%
    15:00 +24°C° 0 mm 3 mps 569 mmHg 22%
    16:00 +22°C° 0 mm 3 mps 568 mmHg 26%
    17:00 +21°C° 0 mm 3 mps 568 mmHg 29%
    18:00 +19°C° 0 mm 2 mps 567 mmHg 35%
    19:00 +18°C° 0 mm 2 mps 567 mmHg 41%
    20:00 +16°C° 0 mm 1 mps 567 mmHg 46%
    21:00 +15°C° 0 mm 1 mps 567 mmHg 47%
    22:00 +15°C° 0 mm 1 mps 567 mmHg 47%
    23:00 +14°C° 0 mm 1 mps 566 mmHg 48%

    Tomorrow, 23 February, Saturday

    Time Temperature Precipitation Wind Pressure Humidity
    00:00 +14°C° 0 mm 1 mps 566 mmHg 51%
    01:00 +13°C° 0 mm 1 mps 565 mmHg 53%
    02:00 +13°C° 0 mm 1 mps 565 mmHg 56%
    03:00 +12°C° 0 mm 1 mps 565 mmHg 58%
    04:00 +12°C° 0 mm 1 mps 565 mmHg 61%
    05:00 +10°C° 0 mm 0 mps 565 mmHg 63%
    06:00 +13°C° 0 mm 1 mps 566 mmHg 58%
    07:00 +14°C° 0 mm 1 mps 567 mmHg 53%
    08:00 +16°C° 0 mm 1 mps 568 mmHg 48%
    09:00 +19°C° 0 mm 1 mps 569 mmHg 42%
    10:00 +21°C° 0 mm 1 mps 570 mmHg 36%
    11:00 +21°C° 0 mm 0 mps 571 mmHg 29%
    12:00 +24°C° 0 mm 1 mps 570 mmHg 27%
    13:00 +24°C° 0 mm 1 mps 570 mmHg 25%
    14:00 +25°C° 0 mm 2 mps 569 mmHg 23%
    15:00 +24°C° 0 mm 2 mps 569 mmHg 29%
    16:00 +21°C° 0 mm 2 mps 568 mmHg 34%
    17:00 +20°C° 0 mm 3 mps 568 mmHg 40%
    18:00 +19°C° 0.1 mm 3 mps 568 mmHg 45%
    19:00 +17°C° 0.1 mm 3 mps 568 mmHg 50%
    20:00 +16°C° 0.1 mm 3 mps 568 mmHg 55%
    21:00 +14°C° 0 mm 3 mps 568 mmHg 59%
    22:00 +15°C° 0 mm 2 mps 568 mmHg 62%
    23:00 +14°C° 0 mm 2 mps 568 mmHg 66%

    Day after tomorrow, 24 February, Sunday

    Time Temperature Precipitation Wind Pressure Humidity
    00:00 +13°C° 0 mm 2 mps 568 mmHg 69%
    01:00 +13°C° 0 mm 2 mps 567 mmHg 71%
    02:00 +13°C° 0 mm 2 mps 567 mmHg 74%
    03:00 +12°C° 0 mm 2 mps 567 mmHg 77%
    04:00 +12°C° 0 mm 2 mps 567 mmHg 80%
    05:00 +10°C° 0 mm 2 mps 566 mmHg 84%
    06:00 +12°C° 0 mm 2 mps 567 mmHg 80%
    07:00 +12°C° 0 mm 3 mps 568 mmHg 75%
    08:00 +13°C° 0 mm 3 mps 569 mmHg 71%
    09:00 +14°C° 0 mm 3 mps 570 mmHg 65%
    10:00 +17°C° 0 mm 3 mps 571 mmHg 59%
    11:00 +18°C° 0 mm 3 mps 571 mmHg 53%
    12:00 +18°C° 0.1 mm 3 mps 571 mmHg 54%
    13:00 +18°C° 0.1 mm 3 mps 570 mmHg 55%
    14:00 +18°C° 0.1 mm 3 mps 569 mmHg 56%
    15:00 +17°C° 0.2 mm 3 mps 569 mmHg 60%
    16:00 +16°C° 0.2 mm 3 mps 568 mmHg 65%
    17:00 +14°C° 0.2 mm 4 mps 568 mmHg 70%
    18:00 +13°C° 0 mm 3 mps 568 mmHg 73%
    19:00 +12°C° 0 mm 3 mps 568 mmHg 77%
    20:00 +11°C° 0 mm 3 mps 568 mmHg 80%
    21:00 +11°C° 0 mm 3 mps 568 mmHg 81%
    22:00 +10°C° 0 mm 2 mps 568 mmHg 82%
    23:00 +10°C° 0 mm 2 mps 568 mmHg 83%

    25 February, Monday

    Time Temperature Precipitation Wind Pressure Humidity
    00:00 +10°C° 0 mm 2 mps 567 mmHg 85%
    01:00 +9°C° 0 mm 2 mps 567 mmHg 86%
    02:00 +10°C° 0 mm 1 mps 566 mmHg 88%
    03:00 +10°C° 0 mm 1 mps 566 mmHg 88%
    04:00 +10°C° 0 mm 1 mps 566 mmHg 88%
    05:00 +10°C° 0 mm 1 mps 566 mmHg 89%
    06:00 +11°C° 0 mm 1 mps 567 mmHg 82%
    07:00 +13°C° 0 mm 1 mps 569 mmHg 76%
    08:00 +14°C° 0 mm 1 mps 570 mmHg 69%
    09:00 +16°C° 0 mm 1 mps 571 mmHg 60%
    10:00 +19°C° 0 mm 1 mps 571 mmHg 52%
    11:00 +21°C° 0 mm 1 mps 572 mmHg 43%
    12:00 +20°C° 0.2 mm 2 mps 571 mmHg 42%
    13:00 +21°C° 0.2 mm 2 mps 571 mmHg 40%
    14:00 +21°C° 0.2 mm 2 mps 570 mmHg 39%
    15:00 +20°C° 0.9 mm 2 mps 570 mmHg 43%
    16:00 +19°C° 0.9 mm 2 mps 569 mmHg 48%
    17:00 +18°C° 0.9 mm 2 mps 569 mmHg 52%
    18:00 +18°C° 0.6 mm 1 mps 569 mmHg 59%
    19:00 +16°C° 0.6 mm 1 mps 569 mmHg 65%
    20:00 +15°C° 0.6 mm 1 mps 569 mmHg 71%
    21:00 +14°C° 0.9 mm 1 mps 569 mmHg 73%
    22:00 +14°C° 0.9 mm 1 mps 569 mmHg 75%
    23:00 +14°C° 0.9 mm 2 mps 569 mmHg 76%

    26 February, Tuesday

    Time Temperature Precipitation Wind Pressure Humidity
    00:00 +13°C° 0 mm 1 mps 568 mmHg 76%
    01:00 +13°C° 0 mm 1 mps 568 mmHg 76%
    02:00 +12°C° 0 mm 0 mps 567 mmHg 76%
    03:00 +11°C° 0 mm 0 mps 567 mmHg 77%
    04:00 +11°C° 0 mm 0 mps 567 mmHg 78%
    05:00 +12°C° 0 mm 1 mps 567 mmHg 78%
    06:00 +13°C° 0 mm 1 mps 568 mmHg 72%
    07:00 +14°C° 0 mm 1 mps 569 mmHg 66%
    08:00 +16°C° 0 mm 1 mps 570 mmHg 59%
    09:00 +19°C° 0 mm 1 mps 570 mmHg 52%
    10:00 +21°C° 0 mm 1 mps 571 mmHg 44%
    11:00 +22°C° 0 mm 1 mps 572 mmHg 37%
    12:00 +23°C° 0.1 mm 1 mps 571 mmHg 35%
    13:00 +23°C° 0.1 mm 1 mps 571 mmHg 33%
    14:00 +24°C° 0.1 mm 2 mps 570 mmHg 31%
    15:00 +21°C° 0.4 mm 2 mps 569 mmHg 37%
    16:00 +20°C° 0.4 mm 2 mps 569 mmHg 43%
    17:00 +20°C° 0.4 mm 1 mps 568 mmHg 48%
    18:00 +19°C° 0.4 mm 1 mps 568 mmHg 53%
    19:00 +18°C° 0.4 mm 1 mps 568 mmHg 58%
    20:00 +16°C° 0.4 mm 1 mps 569 mmHg 63%
    21:00 +15°C° 0.3 mm 1 mps 568 mmHg 64%
    22:00 +15°C° 0.3 mm 1 mps 568 mmHg 66%
    23:00 +14°C° 0.3 mm 1 mps 568 mmHg 67%

    27 February, Wednesday

    Time Temperature Precipitation Wind Pressure Humidity
    00:00 +14°C° 0.1 mm 1 mps 567 mmHg 68%
    01:00 +14°C° 0.1 mm 1 mps 567 mmHg 68%
    02:00 +13°C° 0.1 mm 1 mps 566 mmHg 68%
    03:00 +13°C° 0 mm 1 mps 566 mmHg 68%
    04:00 +12°C° 0 mm 1 mps 566 mmHg 68%
    05:00 +12°C° 0 mm 1 mps 566 mmHg 68%
    06:00 +14°C° 0 mm 1 mps 567 mmHg 61%
    07:00 +15°C° 0 mm 1 mps 568 mmHg 54%
    08:00 +18°C° 0 mm 1 mps 569 mmHg 46%
    09:00 +19°C° 0 mm 2 mps 570 mmHg 39%
    10:00 +20°C° 0 mm 2 mps 570 mmHg 32%
    11:00 +23°C° 0 mm 2 mps 571 mmHg 24%
    12:00 +24°C° 0 mm 3 mps 570 mmHg 23%
    13:00 +24°C° 0 mm 3 mps 570 mmHg 23%
    14:00 +25°C° 0 mm 3 mps 569 mmHg 22%
    15:00 +24°C° 0 mm 3 mps 569 mmHg 27%
    16:00 +22°C° 0 mm 3 mps 568 mmHg 32%
    17:00 +21°C° 0 mm 3 mps 568 mmHg 38%
    18:00 +19°C° 0 mm 2 mps 568 mmHg 45%
    19:00 +19°C° 0 mm 1 mps 568 mmHg 53%
    20:00 +16°C° 0 mm 1 mps 567 mmHg 61%
    21:00 +16°C° 0 mm 1 mps 567 mmHg 61%
    22:00 +15°C° 0 mm 1 mps 567 mmHg 61%
    23:00 +15°C° 0 mm 1 mps 567 mmHg 61%
    Show more